Regional Weather Roundup
Issued by NWS

Home | Current Version | Previous Version | Graphics & Text | Print | Product List | Glossary On
Versions: 1 2 3 4 5 6 7 8 9 10 11 12 13 14 15 16 17 18 19 20 21 22 23 24 25 26 27 28 29 30 31 32 33 34 35 36 37 38 39 40 41 42 43 44 45 46 47 48 49 50
000
ASUS43 KBIS 031710
RWRND

NORTH DAKOTA REGIONAL WEATHER ROUNDUP
NATIONAL WEATHER SERVICE BISMARCK ND
1200 PM CDT MON AUG 03 2015

NOTE: "FAIR" INDICATES FEW OR NO CLOUDS BELOW 12,000 FEET WITH NO
SIGNIFICANT WEATHER AND/OR OBSTRUCTIONS TO VISIBILITY.


NDZ001>003-009>011-017-031800-
NORTHWEST NORTH DAKOTA

CITY           SKY/WX    TMP DP  RH WIND       PRES   REMARKS
WILLISTON      SUNNY     74  48  39 SW5       30.04S
MINOT          MOSUNNY   73  46  38 CALM      30.01F
MINOT AFB      SUNNY     79  46  31 NE2       30.01S
$$

NDZ018>021-031>035-040>046-031800-
SOUTHWEST NORTH DAKOTA

CITY           SKY/WX    TMP DP  RH WIND       PRES   REMARKS
BISMARCK       SUNNY     76  50  40 W8        30.03F
DICKINSON      SUNNY     74  48  39 VRB3      30.04S
GARRISON         N/A     72  50  45 E3        30.03S
HETTINGER ARPT SUNNY     76  50  40 CALM      30.06S
$$

NDZ004>008-012>016-024-026-027-054-031800-
NORTHEAST NORTH DAKOTA

CITY           SKY/WX    TMP DP  RH WIND       PRES   REMARKS
GRAND FORKS    MOSUNNY   72  51  47 NW15G21   29.94S
GRND FRKS AFB  SUNNY     72  52  48 N16       29.95S
DEVILS LAKE    SUNNY     72  45  37 N8        29.98S
$$

NDZ022-023-025-028>030-036>039-047>053-031800-
SOUTHEAST NORTH DAKOTA

CITY           SKY/WX    TMP DP  RH WIND       PRES   REMARKS
FARGO          SUNNY     76  46  34 NW14      29.95R
JAMESTOWN      SUNNY     72  47  40 NW12      30.00S
$$




USA.gov is the U.S. government's official web portal to all federal, state and local government web resources and services.